| time (UTC) | temp C | wind direction | speed KPH | gust KPH | rain 1hr cm | rain 24hr cm | rain mn cm | humidity % | barometer mb |
| 20260503223503 | 15 | 298 | 1.6 | 17.7 | 0.00 | 0.00 | 0.00 | 37 | 1015.8 |
| 20260503223002 | 15 | 295 | 6.4 | 17.7 | 0.00 | 0.00 | 0.00 | 38 | 1015.8 |
| 20260503222502 | 15 | 258 | 9.7 | 12.9 | 0.00 | 0.00 | 0.00 | 38 | 1015.7 |
| 20260503222002 | 15 | 289 | 3.2 | 11.3 | 0.00 | 0.00 | 0.00 | 38 | 1015.6 |
| 20260503221502 | 15 | 324 | 3.2 | 11.3 | 0.00 | 0.00 | 0.00 | 37 | 1015.7 |
| 20260503221002 | 16 | 242 | 4.8 | 11.3 | 0.00 | 0.00 | 0.00 | 39 | 1015.6 |
| 20260503220502 | 16 | 290 | 3.2 | 14.5 | 0.00 | 0.00 | 0.00 | 38 | 1015.6 |
| 20260503220006 | 15 | 306 | 3.2 | 17.7 | 0.00 | 0.00 | 0.00 | 38 | 1015.6 |
| 20260503215502 | 15 | 334 | 4.8 | 19.3 | 0.00 | 0.00 | 0.00 | 39 | 1015.7 |
| 20260503215004 | 16 | 32 | 4.8 | 19.3 | 0.00 | 0.00 | 0.00 | 38 | 1015.6 |
| 20260503214503 | 16 | 313 | 6.4 | 14.5 | 0.00 | 0.00 | 0.00 | 36 | 1015.7 |
| 20260503214004 | 16 | 19 | 1.6 | 14.5 | 0.00 | 0.00 | 0.00 | 39 | 1015.7 |
| 20260503213502 | 16 | 273 | 4.8 | 20.9 | 0.00 | 0.00 | 0.00 | 37 | 1015.6 |
| 20260503213004 | 15 | 305 | 16.1 | 20.9 | 0.00 | 0.00 | 0.00 | 38 | 1015.6 |
| 20260503212504 | 15 | 277 | 4.8 | 19.3 | 0.00 | 0.00 | 0.00 | 36 | 1015.7 |
| 20260503212005 | 15 | 289 | 8.0 | 16.1 | 0.00 | 0.00 | 0.00 | 37 | 1015.6 |
| 20260503211502 | 15 | 269 | 3.2 | 19.3 | 0.00 | 0.00 | 0.00 | 37 | 1015.6 |
| 20260503211004 | 15 | 311 | 6.4 | 19.3 | 0.00 | 0.00 | 0.00 | 38 | 1015.6 |
| 20260503210503 | 15 | 205 | 1.6 | 17.7 | 0.00 | 0.00 | 0.00 | 36 | 1015.5 |
| 20260503210002 | 15 | 323 | 8.0 | 17.7 | 0.00 | 0.00 | 0.00 | 38 | 1015.6 |
| 20260503205502 | 16 | 271 | 3.2 | 16.1 | 0.00 | 0.00 | 0.00 | 36 | 1015.6 |
| 20260503205002 | 16 | 260 | 9.7 | 16.1 | 0.00 | 0.00 | 0.00 | 37 | 1015.5 |
| 20260503204502 | 16 | 330 | 9.7 | 17.7 | 0.00 | 0.00 | 0.00 | 40 | 1015.6 |
| 20260503204002 | 16 | 290 | 6.4 | 17.7 | 0.00 | 0.00 | 0.00 | 38 | 1015.6 |
| 20260503203502 | 16 | 338 | 4.8 | 20.9 | 0.00 | 0.00 | 0.00 | 40 | 1015.6 |
| 20260503203003 | 16 | 14 | 11.3 | 25.7 | 0.00 | 0.00 | 0.00 | 39 | 1015.7 |
| 20260503202502 | 16 | 11 | 12.9 | 25.7 | 0.00 | 0.00 | 0.00 | 39 | 1015.7 |
| 20260503202002 | 16 | 38 | 4.8 | 20.9 | 0.00 | 0.00 | 0.00 | 38 | 1015.7 |
| 20260503201502 | 16 | 350 | 6.4 | 24.1 | 0.00 | 0.00 | 0.00 | 37 | 1015.8 |
| 20260503201002 | 16 | 301 | 11.3 | 24.1 | 0.00 | 0.00 | 0.00 | 38 | 1015.7 |
| 20260503200502 | 16 | 273 | 4.8 | 20.9 | 0.00 | 0.00 | 0.00 | 38 | 1015.8 |
| 20260503200002 | 16 | 252 | 1.6 | 17.7 | 0.00 | 0.00 | 0.00 | 40 | 1015.9 |
| 20260503195503 | 16 | 319 | 3.2 | 20.9 | 0.00 | 0.00 | 0.00 | 38 | 1015.8 |
| 20260503195002 | 16 | 243 | 9.7 | 20.9 | 0.00 | 0.00 | 0.00 | 41 | 1015.9 |
| 20260503194502 | 16 | 309 | 17.7 | 20.9 | 0.00 | 0.00 | 0.00 | 42 | 1016.0 |
| 20260503194002 | 16 | 338 | 8.0 | 20.9 | 0.00 | 0.00 | 0.00 | 39 | 1016.0 |
| 20260503193502 | 16 | 228 | 8.0 | 16.1 | 0.00 | 0.00 | 0.00 | 39 | 1016.1 |
| 20260503193002 | 16 | 284 | 11.3 | 24.1 | 0.00 | 0.00 | 0.00 | 38 | 1016.1 |
| 20260503192502 | 16 | 219 | 1.6 | 24.1 | 0.00 | 0.00 | 0.00 | 38 | 1016.3 |
| 20260503192002 | 16 | 292 | 3.2 | 22.5 | 0.00 | 0.00 | 0.00 | 40 | 1016.3 |
| 20260503191502 | 16 | 23 | 12.9 | 22.5 | 0.00 | 0.00 | 0.00 | 42 | 1016.3 |
| 20260503191004 | 16 | 260 | 4.8 | 22.5 | 0.00 | 0.00 | 0.00 | 40 | 1016.3 |
| 20260503190502 | 16 | 300 | 20.9 | 20.9 | 0.00 | 0.00 | 0.00 | 40 | 1016.5 |
| 20260503190002 | 16 | 223 | 4.8 | 27.4 | 0.00 | 0.00 | 0.00 | 43 | 1016.5 |
| 20260503185502 | 16 | 329 | 17.7 | 27.4 | 0.00 | 0.00 | 0.00 | 40 | 1016.6 |
| 20260503185003 | 16 | 311 | 12.9 | 20.9 | 0.00 | 0.00 | 0.00 | 43 | 1016.6 |
| 20260503184502 | 15 | 263 | 12.9 | 27.4 | 0.00 | 0.00 | 0.00 | 42 | 1016.6 |
| 20260503184002 | 15 | 301 | 12.9 | 27.4 | 0.00 | 0.00 | 0.00 | 41 | 1016.7 |
| 20260503183502 | 15 | 298 | 6.4 | 24.1 | 0.00 | 0.00 | 0.00 | 43 | 1016.8 |
| 20260503183004 | 15 | 268 | 9.7 | 22.5 | 0.00 | 0.00 | 0.00 | 41 | 1016.7 |
| 20260503182503 | 16 | 9 | 12.9 | 22.5 | 0.00 | 0.00 | 0.00 | 43 | 1016.7 |
| 20260503182004 | 15 | 317 | 8.0 | 22.5 | 0.00 | 0.00 | 0.00 | 41 | 1016.7 |
| 20260503181504 | 15 | 313 | 4.8 | 27.4 | 0.00 | 0.00 | 0.00 | 41 | 1016.8 |
| 20260503181004 | 15 | 304 | 16.1 | 27.4 | 0.00 | 0.00 | 0.00 | 42 | 1016.8 |
| 20260503180503 | 15 | 44 | 3.2 | 27.4 | 0.00 | 0.00 | 0.00 | 41 | 1016.8 |
| 20260503180006 | 15 | 285 | 9.7 | 22.5 | 0.00 | 0.00 | 0.00 | 44 | 1016.7 |
| 20260503175502 | 15 | 355 | 8.0 | 22.5 | 0.00 | 0.05 | 0.00 | 47 | 1016.8 |
| 20260503175002 | 15 | 283 | 12.9 | 25.7 | 0.00 | 0.05 | 0.00 | 43 | 1016.9 |
| 20260503174502 | 15 | 300 | 20.9 | 27.4 | 0.00 | 0.05 | 0.00 | 48 | 1016.9 |
| 20260503174002 | 15 | 267 | 11.3 | 27.4 | 0.00 | 0.05 | 0.00 | 42 | 1017.0 |
| 20260503173502 | 15 | 337 | 8.0 | 19.3 | 0.00 | 0.05 | 0.00 | 42 | 1016.9 |
| 20260503173002 | 15 | 325 | 6.4 | 22.5 | 0.00 | 0.05 | 0.00 | 43 | 1017.0 |
| 20260503172502 | 14 | 277 | 17.7 | 24.1 | 0.00 | 0.05 | 0.00 | 43 | 1017.0 |
| 20260503172003 | 15 | 302 | 6.4 | 27.4 | 0.00 | 0.05 | 0.00 | 46 | 1017.1 |
| 20260503171502 | 14 | 299 | 4.8 | 27.4 | 0.00 | 0.05 | 0.00 | 48 | 1017.1 |
| 20260503171002 | 14 | 22 | 8.0 | 32.2 | 0.00 | 0.05 | 0.00 | 47 | 1017.1 |
| 20260503170502 | 14 | 340 | 12.9 | 32.2 | 0.00 | 0.05 | 0.00 | 44 | 1017.3 |
| 20260503151002 | 13 | 311 | 8.0 | 20.9 | 0.00 | 0.20 | 0.00 | 47 | 1017.5 |
| 20260503150501 | 13 | 360 | 8.0 | 24.1 | 0.00 | 0.20 | 0.00 | 44 | 1017.5 |
| 20260503131002 | 11 | 346 | 12.9 | 25.7 | 0.00 | 0.25 | 0.00 | 57 | 1017.0 |
| 20260503130502 | 11 | 19 | 6.4 | 29.0 | 0.00 | 0.25 | 0.00 | 57 | 1017.1 |
| 20260503110502 | 10 | 314 | 4.8 | 14.5 | 0.00 | 0.25 | 0.00 | 64 | 1015.6 |
| 20260503090505 | 10 | 13 | 4.8 | 17.7 | 0.00 | 0.25 | 0.00 | 75 | 1013.6 |
| 20260503081502 | 8 | 284 | 1.6 | 4.8 | 0.00 | 0.25 | 0.00 | 81 | 1013.2 |
| 20260503081002 | 8 | 296 | 1.6 | 6.4 | 0.00 | 0.25 | 0.00 | 80 | 1013.0 |
| 20260503080502 | 8 | 296 | 0.0 | 6.4 | 0.00 | 0.25 | 0.00 | 79 | 1012.8 |
| 20260503072502 | 8 | 298 | 6.4 | 11.3 | 0.00 | 0.25 | 0.00 | 77 | 1012.5 |
| 20260503072002 | 8 | 283 | 4.8 | 11.3 | 0.00 | 0.25 | 0.00 | 77 | 1012.4 |
| 20260503071501 | 9 | 292 | 4.8 | 9.7 | 0.00 | 0.25 | 0.00 | 76 | 1012.3 |
| 20260503071002 | 9 | 309 | 0.0 | 8.0 | 0.00 | 0.25 | 0.00 | 76 | 1012.3 |
| 20260503070500 | 9 | 290 | 3.2 | 6.4 | 0.00 | 0.25 | 0.00 | 75 | 1012.3 |
| 20260503055002 | 10 | 290 | 3.2 | 4.8 | 0.00 | 0.25 | 0.00 | 71 | 1011.6 |
| 20260503054502 | 10 | 290 | 1.6 | 6.4 | 0.00 | 0.25 | 0.00 | 71 | 1011.7 |
| 20260503054002 | 10 | 290 | 3.2 | 6.4 | 0.00 | 0.25 | 0.00 | 71 | 1011.8 |
| 20260503053459 | 10 | 292 | 0.0 | 6.4 | 0.00 | 0.25 | 0.00 | 72 | 1011.9 |
| 20260503053000 | 11 | 289 | 1.6 | 8.0 | 0.00 | 0.25 | 0.00 | 72 | 1011.9 |
| 20260503052502 | 11 | 289 | 4.8 | 11.3 | 0.00 | 0.25 | 0.00 | 73 | 1012.0 |
| 20260503052002 | 11 | 280 | 3.2 | 11.3 | 0.00 | 0.25 | 0.00 | 74 | 1012.0 |
| 20260503051459 | 11 | 273 | 1.6 | 6.4 | 0.00 | 0.25 | 0.00 | 73 | 1012.0 |
| 20260503051002 | 11 | 279 | 1.6 | 6.4 | 0.00 | 0.25 | 0.00 | 72 | 1011.9 |
| 20260503050500 | 11 | 269 | 3.2 | 4.8 | 0.00 | 0.25 | 0.00 | 72 | 1012.0 |
| 20260503050002 | 11 | 291 | 3.2 | 4.8 | 0.00 | 0.25 | 0.00 | 72 | 1012.0 |
| 20260503045500 | 11 | 292 | 0.0 | 8.0 | 0.00 | 0.25 | 0.00 | 72 | 1012.0 |
| 20260503045002 | 11 | 292 | 6.4 | 8.0 | 0.00 | 0.25 | 0.00 | 71 | 1012.1 |
| 20260503044502 | 11 | 294 | 3.2 | 8.0 | 0.00 | 0.25 | 0.00 | 71 | 1012.0 |
| 20260503044002 | 11 | 305 | 1.6 | 8.0 | 0.00 | 0.25 | 0.00 | 70 | 1012.1 |
| 20260503043500 | 11 | 332 | 0.0 | 4.8 | 0.00 | 0.25 | 0.00 | 69 | 1012.0 |
| 20260503043003 | 11 | 332 | 1.6 | 4.8 | 0.00 | 0.25 | 0.00 | 69 | 1011.9 |
| 20260503042503 | 11 | 355 | 3.2 | 3.2 | 0.00 | 0.25 | 0.00 | 69 | 1012.0 |
| 20260503042003 | 12 | 355 | 1.6 | 4.8 | 0.00 | 0.25 | 0.00 | 70 | 1012.0 |
| 20260503041504 | 12 | 355 | 3.2 | 4.8 | 0.00 | 0.25 | 0.00 | 70 | 1012.0 |
| 20260503041004 | 12 | 355 | 0.0 | 0.0 | 0.00 | 0.25 | 0.00 | 69 | 1012.1 |
| 20260503040504 | 11 | 355 | 0.0 | 1.6 | 0.00 | 0.25 | 0.00 | 69 | 1012.1 |
| 20260503040008 | 11 | 355 | 0.0 | 1.6 | 0.00 | 0.25 | 0.00 | 69 | 1012.1 |
| 20260503035503 | 12 | 355 | 0.0 | 0.0 | 0.00 | 0.25 | 0.25 | 68 | 1012.0 |
| 20260503035002 | 12 | 355 | 0.0 | 0.0 | 0.00 | 0.25 | 0.25 | 68 | 1011.9 |
| 20260503034503 | 12 | 355 | 0.0 | 4.8 | 0.00 | 0.25 | 0.25 | 66 | 1012.0 |
| 20260503034004 | 12 | 355 | 0.0 | 11.3 | 0.00 | 0.25 | 0.25 | 66 | 1012.0 |
| 20260503033502 | 12 | 355 | 1.6 | 11.3 | 0.00 | 0.25 | 0.25 | 67 | 1012.1 |
| 20260503033005 | 12 | 317 | 1.6 | 4.8 | 0.00 | 0.25 | 0.25 | 66 | 1012.0 |
| 20260503032503 | 12 | 336 | 0.0 | 4.8 | 0.00 | 0.25 | 0.25 | 66 | 1011.8 |
| 20260503032003 | 12 | 333 | 3.2 | 4.8 | 0.00 | 0.25 | 0.25 | 66 | 1011.7 |
| 20260503031503 | 12 | 333 | 3.2 | 4.8 | 0.00 | 0.25 | 0.25 | 66 | 1011.8 |
| 20260503031003 | 12 | 333 | 1.6 | 6.4 | 0.00 | 0.25 | 0.25 | 65 | 1011.9 |
| 20260503030504 | 12 | 348 | 4.8 | 6.4 | 0.00 | 0.25 | 0.25 | 65 | 1011.8 |
| 20260503030005 | 12 | 335 | 3.2 | 8.0 | 0.00 | 0.25 | 0.25 | 66 | 1011.7 |
| 20260503025503 | 12 | 326 | 1.6 | 8.0 | 0.00 | 0.25 | 0.25 | 66 | 1012.0 |
| 20260503025003 | 12 | 25 | 4.8 | 4.8 | 0.00 | 0.25 | 0.25 | 67 | 1012.0 |
| 20260503024503 | 12 | 25 | 0.0 | 4.8 | 0.00 | 0.25 | 0.25 | 65 | 1012.1 |
| 20260503024003 | 12 | 25 | 0.0 | 8.0 | 0.00 | 0.25 | 0.25 | 65 | 1012.0 |
| 20260503023502 | 12 | 284 | 3.2 | 9.7 | 0.00 | 0.25 | 0.25 | 64 | 1012.0 |
| 20260503023003 | 12 | 299 | 3.2 | 11.3 | 0.00 | 0.25 | 0.25 | 65 | 1012.0 |
| 20260503022502 | 12 | 332 | 8.0 | 8.0 | 0.00 | 0.25 | 0.25 | 65 | 1012.0 |
| 20260503022005 | 12 | 10 | 0.0 | 6.4 | 0.00 | 0.25 | 0.25 | 65 | 1012.0 |
| 20260503021502 | 12 | 10 | 4.8 | 12.9 | 0.00 | 0.25 | 0.25 | 65 | 1012.0 |
| 20260503021004 | 12 | 21 | 3.2 | 12.9 | 0.00 | 0.25 | 0.25 | 64 | 1012.1 |
| 20260503020503 | 12 | 14 | 1.6 | 12.9 | 0.00 | 0.25 | 0.25 | 64 | 1012.0 |
| 20260503020002 | 12 | 30 | 4.8 | 12.9 | 0.00 | 0.25 | 0.25 | 65 | 1012.1 |
| 20260503015502 | 12 | 26 | 1.6 | 12.9 | 0.00 | 0.25 | 0.25 | 65 | 1012.0 |
| 20260503015002 | 12 | 360 | 3.2 | 12.9 | 0.00 | 0.25 | 0.25 | 63 | 1012.0 |
| 20260503014502 | 12 | 360 | 3.2 | 9.7 | 0.00 | 0.25 | 0.25 | 64 | 1011.9 |
| 20260503014002 | 12 | 9 | 3.2 | 12.9 | 0.00 | 0.25 | 0.25 | 64 | 1011.8 |
| 20260503013502 | 12 | 26 | 4.8 | 16.1 | 0.00 | 0.25 | 0.25 | 63 | 1011.7 |
| 20260503013002 | 12 | 27 | 6.4 | 16.1 | 0.00 | 0.25 | 0.25 | 62 | 1011.6 |
| 20260503012502 | 12 | 15 | 6.4 | 20.9 | 0.00 | 0.25 | 0.25 | 62 | 1011.7 |
| 20260503012002 | 12 | 11 | 4.8 | 16.1 | 0.00 | 0.25 | 0.25 | 62 | 1011.6 |
| 20260503011502 | 12 | 48 | 6.4 | 16.1 | 0.00 | 0.25 | 0.25 | 62 | 1011.7 |
| 20260503011002 | 12 | 11 | 1.6 | 16.1 | 0.00 | 0.25 | 0.25 | 62 | 1011.7 |
| 20260503010502 | 12 | 19 | 4.8 | 14.5 | 0.00 | 0.25 | 0.25 | 63 | 1011.7 |
| 20260503010005 | 12 | 57 | 4.8 | 16.1 | 0.00 | 0.25 | 0.25 | 62 | 1011.7 |
| 20260503005502 | 12 | 355 | 9.7 | 14.5 | 0.00 | 0.25 | 0.25 | 62 | 1011.6 |
| 20260503005003 | 12 | 333 | 8.0 | 17.7 | 0.00 | 0.25 | 0.25 | 62 | 1011.7 |
| 20260503004503 | 12 | 5 | 6.4 | 17.7 | 0.00 | 0.25 | 0.25 | 63 | 1011.5 |
| 20260503004003 | 12 | 355 | 1.6 | 16.1 | 0.00 | 0.25 | 0.25 | 65 | 1011.5 |
| 20260503003503 | 12 | 23 | 4.8 | 16.1 | 0.00 | 0.25 | 0.25 | 65 | 1011.5 |
| 20260503003003 | 12 | 5 | 8.0 | 16.1 | 0.00 | 0.25 | 0.25 | 66 | 1011.3 |
| 20260503002502 | 12 | 32 | 3.2 | 14.5 | 0.00 | 0.25 | 0.25 | 66 | 1011.3 |
| 20260503002002 | 12 | 360 | 3.2 | 14.5 | 0.00 | 0.25 | 0.25 | 67 | 1011.2 |
| 20260503001502 | 12 | 16 | 4.8 | 14.5 | 0.00 | 0.25 | 0.25 | 66 | 1011.1 |
| 20260503001002 | 12 | 10 | 3.2 | 16.1 | 0.00 | 0.25 | 0.25 | 66 | 1011.1 |
| 20260503000502 | 12 | 24 | 12.9 | 16.1 | 0.00 | 0.25 | 0.25 | 66 | 1011.2 |
| 20260503000003 | 12 | 21 | 3.2 | 16.1 | 0.00 | 0.25 | 0.25 | 65 | 1011.0 |
| 20260502235502 | 12 | 360 | 14.5 | 19.3 | 0.00 | 0.25 | 0.25 | 65 | 1011.0 |
| 20260502235002 | 12 | 355 | 1.6 | 19.3 | 0.00 | 0.25 | 0.25 | 66 | 1010.8 |
| 20260502234502 | 12 | 351 | 4.8 | 14.5 | 0.00 | 0.25 | 0.25 | 66 | 1011.0 |
| 20260502234002 | 12 | 21 | 3.2 | 14.5 | 0.00 | 0.25 | 0.25 | 66 | 1010.8 |
| 20260502233502 | 12 | 5 | 8.0 | 14.5 | 0.00 | 0.25 | 0.25 | 65 | 1010.7 |
| 20260502233002 | 12 | 13 | 6.4 | 14.5 | 0.00 | 0.25 | 0.25 | 66 | 1010.8 |
| 20260502232502 | 12 | 315 | 3.2 | 19.3 | 0.00 | 0.25 | 0.25 | 65 | 1011.0 |
| 20260502232003 | 12 | 355 | 4.8 | 19.3 | 0.00 | 0.25 | 0.25 | 66 | 1010.9 |
| 20260502231502 | 12 | 13 | 6.4 | 19.3 | 0.00 | 0.25 | 0.25 | 67 | 1010.9 |
| 20260502231002 | 12 | 36 | 4.8 | 17.7 | 0.00 | 0.25 | 0.25 | 68 | 1010.8 |
| 20260502230502 | 12 | 360 | 12.9 | 14.5 | 0.00 | 0.25 | 0.25 | 69 | 1010.8 |
| 20260502230005 | 12 | 18 | 8.0 | 16.1 | 0.00 | 0.25 | 0.25 | 69 | 1010.7 |
| 20260502225502 | 12 | 319 | 6.4 | 16.1 | 0.00 | 0.25 | 0.25 | 69 | 1010.8 |
| 20260502225003 | 12 | 334 | 6.4 | 12.9 | 0.00 | 0.25 | 0.25 | 70 | 1010.8 |
| 20260502224502 | 12 | 345 | 4.8 | 20.9 | 0.00 | 0.25 | 0.25 | 69 | 1010.9 |
| 20260502224003 | 12 | 47 | 14.5 | 20.9 | 0.00 | 0.25 | 0.25 | 70 | 1011.0 |